Regional Weather Roundup
Issued by NWS

Current Version | Previous Version | Text Only | Print | Product List | Glossary On
Versions: 1 2 3 4 5 6 7 8 9 10 11 12 13 14 15 16 17 18 19 20 21 22 23 24 25 26 27 28 29 30 31 32 33 34 35 36 37 38 39 40 41 42 43 44 45 46 47 48 49 50
000
ASUS43 KDMX 010007
RWRIA

WEATHER ROUNDUP FOR IOWA
NATIONAL WEATHER SERVICE DES MOINES IA
700 PM CDT MON AUG 31 2015

NOTE: "FAIR" INDICATES FEW OR NO CLOUDS BELOW 12,000 FEET WITH NO
SIGNIFICANT WEATHER AND/OR OBSTRUCTIONS TO VISIBILITY.

* - THESE STATIONS ARE NOT NWS STATIONS...THUS NOT UNDER NWS
QUALITY CONTROL.  THEY ALSO DO NOT REPORT WEATHER SUCH
AS PRECIPITATION OR FOG.

IAZ001>003-012>014-020>022-031>034-043>046-010100-
   NORTHWEST IOWA

CITY           SKY/WX    TMP DP  RH WIND       PRES   REMARKS
CARROLL *      CLEAR     77  70  78 SW6       29.93S
CHEROKEE *     CLEAR     78  71  76 S6        29.91S HX  81
DENISON *      CLEAR     79  70  73 S7        29.91S HX  81
LE MARS *      SUNNY     79  72  78 S8        29.91R HX  82
ORANGE CITY *  SUNNY     79  72  78 S8        29.91S HX  82
SHELDON *      SUNNY     77  70  78 S5G13     29.90S
SIOUX CITY     SUNNY     81  69  67 S9        29.89S HX  84
6HR MIN TEMP:  81; 6HR MAX TEMP:  84;

SPENCER        CLEAR     78  67  68 S7        29.92S HX  80
6HR MIN TEMP:  78; 6HR MAX TEMP:  84;

STORM LAKE *   CLEAR     75  70  83 S7        29.94S
$$

IAZ055>058-069>071-079>083-090>094-010100-
   SOUTHWEST IOWA

CITY           SKY/WX    TMP DP  RH WIND       PRES   REMARKS
ATLANTIC *     CLEAR     81  70  69 S5        29.93S HX  84
AUDUBON *        N/A     79  72  78 CALM      29.95S HAZE    HX  82
CLARINDA *     CLEAR     81  70  69 SE5       29.93F HX  84
COUNCIL BLFS * CLEAR     81  70  69 SE6       29.92F HX  84
CRESTON *      CLEAR     81  70  69 S7        29.96S HX  84
LAMONI         CLEAR     83  70  64 S7        29.95S HX  87
6HR MIN TEMP:  83; 6HR MAX TEMP:  86;

RED OAK *      CLEAR     81  72  74 CALM      29.92S HX  84
SHENANDOAH *   CLEAR     82  72  69 SE5       29.92S HX  87
$$

IAZ047>049-059>061-072>074-084-010100-
   CENTRAL IOWA

CITY           SKY/WX    TMP DP  RH WIND       PRES   REMARKS
AMES           CLEAR     80  73  79 S6        29.93S HX  84
6HR MIN TEMP:  80; 6HR MAX TEMP:  86;

ANKENY *       CLEAR     82  73  74 S5        29.92F HX  88
CHARITON *     CLEAR     82  72  69 S5        29.95S HX  87
DES MOINES     PTCLDY    84  72  67 S6        29.92F HX  89
6HR MIN TEMP:  84; 6HR MAX TEMP:  88;

GRINNELL*      CLEAR     81  72  74 S5        29.95F HX  84
KNOXVILLE *    CLEAR     82  72  69 S6        29.93S HX  87
MARSHALLTOWN   CLEAR     81  73  76 S5        29.93S HX  86
6HR MIN TEMP:  81; 6HR MAX TEMP:  85;

PELLA *        CLEAR     83  75  75 S5        29.94F HX  90
PERRY *          N/A     82  73  75 S3        29.93R HX  86
$$

IAZ004>006-015-016-023>025-035-036-010100-
   NORTH CENTRAL IOWA

CITY           SKY/WX    TMP DP  RH WIND       PRES   REMARKS
ALGONA *       CLEAR     79  72  78 S9        29.93S HX  82
CLARION *      CLEAR     79  72  78 S7        29.93S HX  82
ESTHERVILLE    CLEAR     77  69  76 S8        29.92S
6HR MIN TEMP:  77; 6HR MAX TEMP:  82;

FORT DODGE *   CLEAR     79  68  69 S6        29.94S HX  81
MASON CITY     CLEAR     79  73  82 S7        29.95S HX  82
6HR MIN TEMP:  79; 6HR MAX TEMP:  85;

FOREST CITY *  CLEAR     79  70  73 S6        29.93S HX  81
IOWA FALLS *     N/A     81  73  78 SE5       29.94F HX  85
$$

IAZ007>011-017>019-026>030-037>042-050>054-066-010100-
   NORTHEAST IOWA

CITY           SKY/WX    TMP DP  RH WIND       PRES   REMARKS
CEDAR RAPIDS   CLEAR     81  75  82 SE6       29.96S HX  87
6HR MIN TEMP:  81; 6HR MAX TEMP:  85;

CHARLES CITY * CLEAR     81  75  83 S7        29.95S HX  86
CLINTON *      CLEAR     82  73  74 SE6       30.01S HX  88
DECORAH *      CLEAR     79  73  83 S6        29.96S HX  82
DUBUQUE        CLEAR     79  73  82 SE6       30.00S HX  82
6HR MIN TEMP:  79; 6HR MAX TEMP:  83;

MONTICELLO *   CLEAR     81  73  78 SE6       29.97S HX  85
OELWEIN *      CLEAR     79  73  83 SE6       29.97S HX  82
WATERLOO       CLEAR     82  72  71 S8        29.93F HX  87
6HR MIN TEMP:  82; 6HR MAX TEMP:  85;

$$

IAZ064-065-067-068-078-010100-
   EAST CENTRAL IOWA

CITY           SKY/WX    TMP DP  RH WIND       PRES   REMARKS
DAVENPORT      CLEAR     82  72  71 S5        29.98F HX  87
6HR MIN TEMP:  82; 6HR MAX TEMP:  87;

IOWA CITY      CLEAR     83  73  72 SE6       29.96F HX  89
6HR MIN TEMP:  83; 6HR MAX TEMP:  87;

MT. PLEASANT * CLEAR     85  69  59 SE6       29.96F HX  88
MUSCATINE *    CLEAR     86  72  62 SE6       29.96S HX  92
QUAD CITIES    CLEAR     84  73  69 SE3       29.97F HX  90
6HR MIN TEMP:  84; 6HR MAX TEMP:  88;

$$

IAZ062-063-075>077-085>089-095>099-010100-
   SOUTHEAST IOWA

CITY           SKY/WX    TMP DP  RH WIND       PRES   REMARKS
BURLINGTON     CLEAR     84  73  69 SE6       29.97S HX  90
6HR MIN TEMP:  84; 6HR MAX TEMP:  89;

FAIRFIELD *    CLEAR     84  72  65 S5        29.95F HX  89
FORT MADISON * CLEAR     82  73  74 SE3       29.97F HX  88
KEOKUK *       CLEAR     84  72  65 SE5       29.96S HX  89
OSKALOOSA *      N/A     83  71  67 S3        29.95S HX  87
CENTERVILLE *  CLEAR     81  73  78 S3        29.97S HX  85
OTTUMWA        CLEAR     82  74  76 S5        29.93F HX  88
6HR MIN TEMP:  82; 6HR MAX TEMP:  88;

WASHINGTON *     N/A    N/A N/A N/A MISG        N/A
$$

ABBREVIATIONS USED IN REMARKS
   TC - TEMPERATURES IN CELSIUS
  WCI - WIND CHILL INDEX
   HX - HEAT INDEX
  VSB - VISIBILITY
$$




USA.gov is the U.S. government's official web portal to all federal, state and local government web resources and services.